Location: Oshawa
(43.9000°N, 78.8670°W)
Time: 12:48:08
(UTC-04:00)

Courier 1B - All Passes

Search period start: 06 May 2016 00:00
Search period end: 16 May 2016 00:00
Orbit: 963 x 1209 km, 28.3° (Epoch: 06 May)

Date Brightness Start Highest point End Pass type
(mag) Time Alt. Az. Time Alt. Az. Time Alt. Az.
06 May - 00:29:28 10° SSW 00:34:05 17° SSE 00:38:40 10° SE night (unlit)
06 May - 02:21:20 10° SW 02:27:15 24° S 02:33:00 10° SE visible
06 May - 04:15:03 10° WSW 04:20:25 21° SSW 04:25:36 10° SSE visible
06 May - 06:12:16 10° SW 06:13:17 10° SSW 06:14:17 10° SSW daylight
06 May - 23:36:48 10° S 23:40:30 14° SSE 23:44:11 10° SE night (unlit)
07 May - 01:27:46 10° SW 01:33:36 23° S 01:39:19 10° SE visible
07 May - 03:21:03 10° SW 03:26:48 23° S 03:32:24 10° SE visible
07 May - 05:16:21 10° SW 05:19:48 14° SSW 05:23:11 10° S visible
07 May - 22:45:05 10° SSE 22:46:56 11° SSE 22:48:48 10° SE night (unlit)
08 May - 00:34:22 10° SW 00:39:57 21° SSE 00:45:29 10° ESE night (unlit)
08 May - 02:27:12 10° SW 02:33:11 24° S 02:39:01 10° SE visible
08 May - 04:21:43 10° SW 04:26:16 17° SSW 04:30:44 10° SSE visible
08 May - 23:41:11 10° SSW 23:46:19 19° SSE 23:51:28 10° ESE night (unlit)
09 May - 01:33:28 10° SW 01:39:31 25° S 01:45:30 10° SE visible
09 May - 03:27:26 10° WSW 03:32:43 20° SSW 03:37:51 10° SSE visible
09 May - 22:48:16 10° SSW 22:52:43 16° SSE 22:57:11 10° SE visible
10 May - 00:39:51 10° SW 00:45:51 24° S 00:51:49 10° SE night (unlit)
10 May - 02:33:23 10° WSW 02:39:06 22° S 02:44:41 10° SE visible
10 May - 04:29:26 10° SW 04:32:04 12° SSW 04:34:40 10° S visible
10 May - 21:55:52 10° S 21:59:09 13° SSE 22:02:28 10° SE visible
10 May - 23:46:24 10° SW 23:52:11 23° S 23:58:00 10° ESE visible
11 May - 01:39:29 10° SW 01:45:26 24° S 01:51:21 10° SE night (unlit)
11 May - 03:34:24 10° SW 03:38:32 15° SSW 03:42:36 10° SSE visible
11 May - 22:53:08 10° SSW 22:58:33 21° SSE 23:04:02 10° ESE visible
12 May - 00:45:43 10° SW 00:51:46 25° S 00:57:50 10° SE visible
12 May - 02:39:58 10° WSW 02:44:57 18° SSW 02:49:53 10° SSE night (unlit)
12 May - 22:00:07 10° SSW 22:04:57 18° SSE 22:09:53 10° ESE visible
12 May - 23:52:07 10° SW 23:58:06 25° S 00:04:10 10° SE visible
13 May - 01:45:51 10° WSW 01:51:20 21° SSW 01:56:48 10° SSE night (unlit)
13 May - 21:07:26 10° S 21:11:23 15° SSE 21:15:25 10° SE visible
13 May - 22:58:38 10° SW 23:04:27 24° S 23:10:23 10° SE visible
14 May - 00:51:55 10° WSW 00:57:41 23° S 01:03:29 10° SE visible
14 May - 02:47:25 10° SW 02:50:45 13° SSW 02:54:05 10° S night (unlit)
14 May - 20:15:28 10° S 20:17:52 12° SSE 20:20:18 10° SE daylight
14 May - 22:05:20 10° SW 22:10:49 22° S 22:16:27 10° ESE visible
14 May - 23:58:09 10° SW 00:04:02 24° S 00:10:01 10° SE visible
15 May - 01:52:44 10° SW 01:57:11 16° SSW 02:01:37 10° SSE night (unlit)
15 May - 21:12:13 10° SSW 21:17:13 20° SSE 21:22:21 10° ESE visible
15 May - 23:04:31 10° SW 23:10:22 24° S 23:16:22 10° SE visible
